Regional Weather Roundup
Issued by NWS

Home | Current Version | Previous Version | Graphics & Text | Print | Product List | Glossary On
Versions: 1 2 3 4 5 6 7 8 9 10 11 12 13 14 15 16 17 18 19 20 21 22 23 24 25 26 27 28 29 30 31 32 33 34 35 36 37 38 39 40 41 42 43 44 45 46 47 48 49 50
000
ASUS45 KTFX 170819
RWRMT
MONTANA HOURLY WEATHER ROUNDUP
NATIONAL WEATHER SERVICE GREAT FALLS MT
219 AM MDT WED SEP 17 2014

NOTE: "FAIR" INDICATES FEW OR NO CLOUDS BELOW 12000 FEET WITH NO
SIGNIFICANT WEATHER AND/OR OBSTRUCTIONS TO VISIBILITY.

* THESE STATIONS ARE NOT UNDER NWS QUALITY CONTROL. THEY DO NOT
   REPORT WEATHER SUCH AS PRECIPITATION OR FOG.

MTZ001>007-043-170900-
WEST OF THE DIVIDE
CITY           SKY/WX    TMP DP  RH WIND       PRES   REMARKS
KALISPELL      MOCLDY    52  45  77 CALM      29.90S
MISSOULA       PTCLDY    54  43  67 SE3       29.94S
BUTTE          PTCLDY    45  39  80 SE3       30.08S
MULLAN PASS    PTCLDY    63  37  38 S5        30.05F
* ESSEX        N/A       54  45  72 NE1G11     N/A
* LINCOLN      N/A       45  40  83 N/A        N/A
* LOOKOUT PASS N/A       57  40  53 SE1        N/A
* POLSON       N/A       59  39  48 SE1        N/A
* RONAN APT    MOCLDY    55  46  72 N/A        N/A
* SEELEY LAKE  N/A       45  39  80 N/A        N/A
* THOMP F APT  MOCLDY    54  45  72 N/A        N/A
$$

MTZ008-052>055-170900-
SOUTHWEST MONTANA
CITY           SKY/WX    TMP DP  RH WIND       PRES   REMARKS
BOZEMAN        PTCLDY    54  46  74 SE7       30.02F
DILLON         CLEAR     55  46  72 S8        30.05R
W YELLOWSTONE  PTCLDY    39  37  93 SW6       30.17S WCI  35
* THREE FORKS  PTCLDY    48 -42   1 N/A        N/A
* BOULDER HILL N/A       54  43  67 S5         N/A
* MONIDA PASS  N/A       47  41  80 W3         N/A
* RAYNOLDS PAS N/A       48  23  37 SE11       N/A
* WHITEHALL    N/A       51  42  71 N7         N/A
* WISE RIVER   N/A       47  38  71 W3         N/A
$$

MTZ009>010-012-014-046-048-049-054-170900-
EAST SLOPES AND CENTRAL MONTANA
CITY           SKY/WX    TMP DP  RH WIND       PRES   REMARKS
CUT BANK       CLOUDY    57  43  60 CALM      29.92F
GREAT FALLS    CLOUDY    55  43  64 W7        29.92S
HELENA         PTCLDY    57  52  83 NW3       29.97R
MALMSTROM AFB  MOCLDY    61  43  52 VRB1      29.92S
* CONRAD       CLOUDY    52  48  86 N/A        N/A
* EAST GLACIER N/A       55  43  64 W5         N/A
* MONARCH      N/A       53  37  55 SW6        N/A
* PENDROY      N/A       63  41  45 NW6        N/A
* ROGERS PASS  N/A       59  39  48 NW4        N/A
* SAINT MARY   N/A       49  43  80 SE3        N/A
* SWEET GRASS  N/A       64  35  34 W10        N/A
* WHITE SULPH  N/A       59  44  58 E4G12      N/A
$$

MTZ011-013-016-021-035-040-045-047-050-051-170900-
NORTH CENTRAL MONTANA
CITY           SKY/WX    TMP DP  RH WIND       PRES   REMARKS
HAVRE          MOCLDY    55  50  83 E5        29.86F
LEWISTOWN      MOCLDY    55  43  64 SE6       29.95F
* CHINOOK      MOCLDY    54  50  86 E3        29.88S
* FORT BENTON  CLOUDY    61  48  62 CALM      29.89S
* CHESTER      N/A       54  43  67 E1         N/A
* DENTON       N/A       56  48  75 SE6        N/A
* JUDITH GAP   N/A       53  45  74 S1G8       N/A
* LOMA         N/A       59  48  67 NW1        N/A
$$

MTZ017>020-022>027-061-062-170900-
NORTHEAST MONTANA
CITY           SKY/WX    TMP DP  RH WIND       PRES   REMARKS
GLASGOW        MOCLDY    54  39  57 E10       29.89F
JORDAN         PTCLDY    48  45  89 CALM      29.91S
SIDNEY         PTCLDY    43  37  79 CALM      29.95S
WOLF POINT     MOCLDY    46  37  71 CALM      29.92R
* BEAVER HILL  N/A       54  44  69 SE10       N/A
* CIRCLE       N/A       51  43  74 N/A        N/A
* LINDSAY DVD  N/A       53  43  69 NE3        N/A
* NAVAJO       N/A       52  37  57 S6         N/A
* SACO         N/A       51  45  80 NE1        N/A
$$

MTZ028>042-056>058-170900-
SOUTHCENTRAL AND SOUTHEAST MONTANA
CITY           SKY/WX    TMP DP  RH WIND       PRES   REMARKS
BAKER          CLEAR     46  45  96 E5        29.95F
BILLINGS       PTCLDY    63  43  48 SW14      29.95S
LIVINGSTON     LGT RAIN  64  48  56 SW15G26   30.02R
MILES CITY     PTCLDY    54  45  72 NE5       29.91S
* LAUREL APT   MOCLDY    57  43  60 SW5        N/A
* ROUNDUP APT  MOCLDY    54  45  72 SW7        N/A
* ALZADA       N/A       49  42  77 N/A        N/A
* HYSHAM       N/A       64  40  41 W2         N/A
* LAME DEER    N/A       62  38  41 S6         N/A
* REED POINT   N/A       51  47  86 W1         N/A
* ROSCOE HILL  N/A       62  39  43 S12G17     N/A
$$

REGIONAL REPORTS...DAKOTAS
CITY           SKY/WX    TMP DP  RH WIND       PRES   REMARKS
WILLISTON      CLEAR     43  37  79 CALM      29.93S
DICKINSON      PTCLDY    45  39  80 CALM      29.93S
BEACH          N/A       45  45 100 SE3       29.95F
CROSBY         CLEAR     46  41  83 S9        29.93S
TIOGA          CLEAR     37  37 100 CALM      29.97S
WATFORD CITY   CLEAR     37  36  96 CALM      29.92F
BISMARCK       CLEAR     43  43 100 CALM      29.94S
GRAND FORKS    CLEAR     46  41  83 CALM      29.90S
FARGO          CLEAR     54  46  74 S6        29.90S
BUFFALO SD     CLEAR     52  45  77 W5        29.89S
RAPID CITY     CLEAR     55  45  69 W6        29.95S
$$

REGIONAL REPORTS...WYOMING/IDAHO/WASHINGTON
CITY           SKY/WX    TMP DP  RH WIND       PRES   REMARKS
GILLETTE       PTCLDY    57  39  51 S12       30.01S
SHERIDAN       MOCLDY    55  46  72 SW7       29.98F
CODY           PTCLDY    52  45  77 E3        30.07R
YELLOWSTONE LA PTCLDY    39  36  89 CALM      30.26S
SALMON         PTCLDY    46  41  83 CALM      30.00R
MULLAN PASS    PTCLDY    63  37  38 S5        30.05S
SAND POINT     PTCLDY    50  50 100 CALM      29.86S
SPOKANE        MOCLDY    61  36  39 CALM      29.84S
$$

REGIONAL REPORTS...ALBERTA
CITY           SKY/WX    TMP DP  RH WIND       PRES   REMARKS
CALGARY        FAIR      46  39  77 CALM      29.91S
LETHBRIDGE     CLEAR     46  41  83 SW7       29.87S
MEDICINE HAT   CLEAR     50  46  86 N3        29.86S
EDMONTON       PTCLDY    41  39  93 SW7       29.84F
WATERTON GATE  N/A       54  41  62 SW3        N/A
CARDSTON       N/A       50  43  77 NW1        N/A
MILK RIVER     N/A       48  43  83 W9         N/A
$$

REGIONAL REPORTS...SASKATCHEWAN
CITY           SKY/WX    TMP DP  RH WIND       PRES   REMARKS
SWIFT CURRENT  CLEAR     54  41  62 SE7       29.90S
REGINA         N/A       48  41  77 E9        29.92S
VAL MARIE      N/A       43  41  93 NE6        N/A
ASSINIBOIA     N/A       48  39  71 S3         N/A
CORONACH       N/A       39  36  89 N1         N/A

$$



USA.gov is the U.S. government's official web portal to all federal, state and local government web resources and services.